Location: Gajan
(43.0218°N, 1.1244°E)
Time: 15:29:02
(UTC+00:00)

Cosmos 2221 - Pass Details

Date: 22 April 2021
Orbit: 593 x 615 km, 82.5° (Epoch: 12 May)

Event Time Altitude Azimuth Distance (km) Brightness Sun altitude
Exits shadow 21:41:53 44° 14° (NNE) 830 3.4 -26.8°
Drops below altitude 10° 21:44:51 10° 10° (N) 1,941 5.6 -27.1°
Sets 21:47:05 0° 9° (N) 2,851 6.6 -27.4°
